Simultaneous Nadir Overpasses (SNOs) Predictions

Prediction of SNOs between NOAA-20 and NOAA-19 Satellite Orbit:

Table of predicted SNOs for the next 14.0 days since TLE Epoch: 1/24/2020
Index Date (NOAA-20) Time (NOAA-20) Lat,Lon (NOAA-20) SZA (NOAA-20 ) Date (NOAA-19) Time (NOAA-19) Lat,Lon (NOAA-19) SZA (NOAA-19 ) Distance(km) Time Diff (sec)
1 02/06/2020 16:57:37 79.42,-108.17 97.08 02/06/2020 16:56:30 79.43,-111.22 97.46 62.25 67
2 02/06/2020 17:48:27 -79.59, 57.78 82.65 02/06/2020 17:47:26 -79.59, 57.70 82.61 1.60 61
3 02/06/2020 18:39:12 79.59,-134.92 97.35 02/06/2020 18:38:25 79.59,-135.10 97.39 3.55 47
4 02/06/2020 19:29:57 -79.59, 32.39 82.67 02/06/2020 19:29:26 -79.61, 32.40 82.64 2.36 31
5 02/06/2020 20:20:42 79.59,-160.31 97.33 02/06/2020 20:20:25 79.61,-160.41 97.36 2.43 17
6 02/06/2020 21:11:28 -79.62, 6.72 82.63 02/06/2020 21:11:27 -79.60, 6.81 82.66 2.95 1
7 02/06/2020 22:02:13 79.63, 174.02 97.37 02/06/2020 22:02:26 79.60, 174.00 97.34 3.25 13
8 02/06/2020 22:52:58 -79.63, -18.67 82.65 02/06/2020 22:53:27 -79.62, -18.50 82.69 3.55 29
9 02/06/2020 23:43:43 79.63, 148.63 97.35 02/06/2020 23:44:26 79.62, 148.69 97.31 1.88 43
10 02/07/2020 00:34:28 -79.63, -44.06 82.67 02/07/2020 00:35:28 -79.61, -44.09 82.71 1.71 60




NCC Satellite Simultaneous Nadir Overpasses (SNOs) Prediction Service
